Weather in Karpacz

Poland     50°46′36″N   15°45′31″E
temp.,
°C
wind,
m/s
gust,
m/s
humid.,
%
clouds,
%
prec.,
mm/h
press.,
hPa
HPBL,
m
18 may, wed
wed1823:00+8nnw119478 0.0 102413
02:00+7ne119514 0.0 102513
05:00+6e119694 0.0 102613
08:00+11ese1179100 0.0 1027268
11:00+16ese1249100 0.0 10271465
14:00+17sse124799 0.0 10261582
17:00+17ssw125333 0.0 10251305
20:00+12ssw21795 0.0 102621
19 may, thu
thu1923:00+8ssw228352 0.0 102829
02:00+7sw22755 0.0 102833
05:00+7ssw22685 0.0 102732
08:00+13ssw344729 0.0 1026242
11:00+17s333683 0.0 1025622
14:00+20s343759 0.0 1024829
17:00+19ssw3544100 0.0 1023804
20:00+14ssw2375100 0.0 102365
20 may, fri
fri2023:00+11ssw337895 0.0 102361
02:00+12sw3369100 0.0 102355
05:00+12sw2278100 0.3 102239
08:00+15sw237787 0.3 1022113
11:00+22wsw365291 0.0 10211375
14:00+23w475189 0.1 10201828
17:00+22w3661100 0.3 10191340
20:00+17s1189100 2.7 101811
21 may, sat
sat2123:00+14ssw239564 3.3 101657
02:00+15ssw4139287 3.4 1012414
05:00+14wsw349884 2.8 1012132
08:00+12wnw61290100 3.4 10141167
11:00+9w6148099 0.1 10161111
14:00+13w7156168 0.2 10161652
17:00+14wnw715635 0.1 10151587
20:00+10wnw7158049 0.1 10161385
22 may, sun
sun2223:00+9wnw4138398 0.1 10171232
02:00+8nw31087100 0.2 1018945
05:00+7nw379396 0.2 1018762
08:00+7nw2894100 0.6 1019782
11:00+7wnw3792100 0.3 1019948
14:00+8nw378452 0.5 1019813
17:00+9nw3882100 0.4 1018963
20:00+8nnw368737 0.5 1019499